Tracking 19795 objects as of 18-Jul-2019
HD Live streaming from Space Station
objects crossing your sky now

COSMOS 626

Track COSMOS 626 now!
10-day predictions
COSMOS 626 is classified as:


NORAD ID: 7005
Int'l Code: 1973-108A
Perigee: 918.5 km
Apogee: 985.6 km
Inclination: 65.4 °
Period: 103.9 minutes
Semi major axis: 7323 km
RCS: 3.2756 m2 (large)
Launch date: December 27, 1973
Source: Commonwealth of Independent States (former USSR) (CIS)
Launch site: TYURATAM MISSILE AND SPACE COMPLEX (TTMTR)
aabbcc
Your satellite tracking list
Your tracking list is empty




NASA's NSSDC Master Catalog

Two Line Element Set (TLE):
1  7005U 73108A   19198.58517624 -.00000069  00000-0  14388-4 0  9991
2  7005  65.4386  64.5477 0045807  30.4427 329.9282 13.85359829304884
Source of the keplerian elements: AFSPC